Location: Lalanga
(4.5882°N, 32.9072°E)
Time: 03:57:28
(UTC+00:00)

Envisat - Visible Passes

Search period start: 05 April 2020 00:00
Search period end: 15 April 2020 00:00
Orbit: 764 x 766 km, 98.1° (Epoch: 04 April)

Date Brightness Start Highest point End Pass type
(mag) Time Alt. Az. Time Alt. Az. Time Alt. Az.
05 Apr 5.6 16:42:08 10° SSW 16:46:03 23° WSW 16:49:59 10° NW visible
07 Apr 6.0 02:56:27 10° ENE 02:59:05 14° E 03:01:44 10° SE visible
07 Apr 6.3 17:10:35 10° WSW 17:11:28 10° WSW 17:12:20 10° W visible
08 Apr 5.0 16:30:20 10° SSW 16:34:46 31° WSW 16:39:12 10° NW visible
09 Apr 5.2 03:20:08 10° NE 03:24:30 30° ESE 03:28:53 10° SSE visible
10 Apr 5.9 16:57:23 10° SW 17:00:11 15° WSW 17:02:58 10° WNW visible
11 Apr 4.4 16:18:43 10° S 16:23:29 42° WSW 16:28:15 10° NNW visible
12 Apr 5.7 03:09:22 10° NE 03:13:13 22° ESE 03:17:04 10° SSE visible
13 Apr 5.7 16:45:13 10° SSW 16:48:53 20° WSW 16:52:34 10° NW visible
